DW9907 Weather Reports


time (UTC)temp
C
wind
direction
speed
KPH
gust
KPH
rain 1hr
cm
rain 24hr
cm
rain mn
cm
humidity
%
barometer
mb
20260507134530 6 185 14.5 27.4 0.00 0.05 0.00 86 1016.9
20260507133030 5 185 16.1 25.7 0.00 0.05 0.00 89 1017.0
20260507131533 4 185 12.9 25.7 0.00 0.05 0.00 92 1017.0
20260507130031 3 185 12.9 20.9 0.00 0.05 0.00 92 1017.0
20260507124545 2 185 14.5 22.5 0.00 0.05 0.00 93 1017.2
20260507123031 2 185 11.3 20.9 0.00 0.05 0.00 93 1017.1
20260507121528 2 185 9.7 19.3 0.00 0.05 0.00 92 1017.1
20260507120030 2 185 8.0 19.3 0.00 0.05 0.00 92 1017.2
20260507114530 2 185 12.9 22.5 0.00 0.05 0.00 93 1017.1
20260507113031 2 185 11.3 22.5 0.00 0.05 0.00 93 1017.1
20260507111532 1 185 12.9 19.3 0.00 0.05 0.00 92 1017.1
20260507110034 1 185 11.3 17.7 0.00 0.05 0.00 92 1017.1
20260507104530 2 185 8.0 16.1 0.00 0.05 0.00 92 1017.3
20260507103031 2 185 12.9 17.7 0.00 0.05 0.00 91 1017.5
20260507101532 2 185 8.0 19.3 0.00 0.05 0.00 92 1017.5
20260507100036 2 185 8.0 17.7 0.00 0.05 0.00 91 1017.6
20260507094529 2 185 11.3 19.3 0.00 0.05 0.00 91 1017.7
20260507093037 3 185 9.7 20.9 0.00 0.05 0.00 91 1017.8
20260507091538 3 185 11.3 19.3 0.00 0.05 0.00 91 1018.1
20260507090030 3 185 9.7 17.7 0.00 0.05 0.00 91 1018.2
20260507084534 3 185 9.7 17.7 0.00 0.08 0.00 91 1018.2
20260507083030 3 185 11.3 19.3 0.00 0.08 0.00 91 1018.4
20260507081529 3 185 11.3 19.3 0.00 0.08 0.00 90 1018.6
20260507080032 4 185 9.7 16.1 0.00 0.08 0.00 90 1018.7
20260507074530 5 185 9.7 16.1 0.00 0.10 0.00 89 1018.8
20260507073029 5 185 6.4 16.1 0.00 0.10 0.00 89 1018.9
20260507071531 5 185 6.4 14.5 0.00 0.10 0.00 88 1019.2
20260507070034 6 185 6.4 19.3 0.00 0.10 0.00 88 1019.2
20260507064531 6 185 11.3 19.3 0.00 0.25 0.00 88 1019.4
20260507063043 6 185 9.7 17.7 0.00 0.25 0.00 88 1019.4
20260507061532 6 185 14.5 20.9 0.00 0.25 0.00 88 1019.6
20260507060041 6 185 11.3 17.7 0.00 0.25 0.00 88 1019.6
20260507054531 7 185 11.3 17.7 0.00 0.41 0.00 88 1019.6
20260507053030 7 185 9.7 17.7 0.00 0.41 0.00 88 1019.5
20260507051532 7 185 11.3 19.3 0.00 0.41 0.00 87 1019.6
20260507050035 7 185 12.9 19.3 0.00 0.41 0.00 87 1019.8
20260507044528 7 185 9.7 17.7 0.00 0.46 0.41 87 1019.9
20260507043028 7 185 8.0 14.5 0.00 0.46 0.41 88 1019.9
20260507041531 7 185 6.4 14.5 0.00 0.46 0.41 87 1020.0
20260507040033 6 185 8.0 14.5 0.00 0.46 0.41 86 1019.8
20260507034535 7 185 6.4 12.9 0.00 0.48 0.41 84 1019.9
20260507033029 7 185 6.4 16.1 0.00 0.48 0.41 82 1019.7
20260507031530 7 185 8.0 14.5 0.00 0.48 0.41 81 1019.5
20260507030028 8 185 6.4 12.9 0.00 0.48 0.41 81 1019.5
20260507024530 8 185 1.6 4.8 0.00 0.48 0.41 79 1018.7
20260507023031 8 0 0.0 1.6 0.00 0.48 0.41 79 1018.6
20260507021531 8 0 0.0 3.2 0.00 0.48 0.41 78 1018.8
20260507020039 8 185 1.6 6.4 0.00 0.48 0.41 78 1018.7
20260507014530 8 185 3.2 6.4 0.00 0.48 0.41 77 1018.8
20260507013044 8 185 1.6 3.2 0.00 0.48 0.41 75 1018.7
20260507011528 8 185 3.2 6.4 0.00 0.48 0.41 72 1018.3
20260507010036 9 185 4.8 8.0 0.00 0.48 0.41 71 1018.2
20260507004531 9 185 3.2 6.4 0.00 0.48 0.41 70 1018.1
20260507003031 9 185 3.2 8.0 0.00 0.48 0.41 69 1018.1
20260507001531 9 185 4.8 14.5 0.00 0.48 0.41 69 1018.1
20260507000030 10 185 4.8 16.1 0.00 0.48 0.41 68 1018.3
20260506234535 10 185 8.0 16.1 0.00 0.48 0.41 67 1017.8
20260506233044 10 185 1.6 9.7 0.00 0.48 0.41 65 1017.6
20260506231530 10 0 1.6 8.0 0.00 0.48 0.41 65 1018.0
20260506230029 10 0 0.0 8.0 0.00 0.48 0.41 65 1017.6
20260506224530 10 185 3.2 14.5 0.00 0.48 0.41 65 1017.6
20260506223027 10 185 1.6 6.4 0.00 0.48 0.41 67 1017.7
20260506221530 10 185 1.6 9.7 0.00 0.48 0.41 69 1017.9
20260506220031 9 185 4.8 9.7 0.00 0.48 0.41 70 1017.9
20260506214529 9 185 6.4 16.1 0.00 0.48 0.41 70 1017.9
20260506213030 9 0 1.6 14.5 0.00 0.48 0.41 71 1017.9
20260506211530 8 185 4.8 14.5 0.00 0.48 0.41 71 1018.0
20260506210035 8 185 4.8 14.5 0.00 0.48 0.41 73 1018.1
20260506204534 8 185 8.0 16.1 0.00 0.48 0.41 75 1018.4
20260506203030 8 185 6.4 16.1 0.00 0.48 0.41 74 1018.3
20260506201532 8 185 4.8 12.9 0.00 0.48 0.41 76 1018.3
20260506200040 8 185 4.8 17.7 0.00 0.48 0.41 77 1018.3
20260506194530 8 185 8.0 20.9 0.00 0.48 0.41 76 1018.4
20260506193031 8 185 12.9 22.5 0.00 0.48 0.41 78 1018.3
20260506191531 8 185 12.9 22.5 0.00 0.48 0.41 81 1018.6
20260506190029 7 185 8.0 19.3 0.00 0.48 0.41 85 1018.7
20260506184533 7 185 9.7 19.3 0.00 0.48 0.41 86 1018.8
20260506183035 6 185 11.3 25.7 0.00 0.48 0.41 86 1019.1
20260506181528 7 185 8.0 16.1 0.00 0.48 0.41 88 1019.1
20260506180028 6 185 12.9 22.5 0.00 0.48 0.41 88 1019.1
20260506174529 6 185 8.0 22.5 0.00 0.48 0.41 88 1019.1
20260506173033 7 185 14.5 24.1 0.00 0.48 0.41 87 1019.2
20260506171529 7 185 8.0 19.3 0.00 0.48 0.41 88 1019.1
20260506170030 7 185 8.0 16.1 0.00 0.48 0.41 89 1019.0
20260506164527 7 185 6.4 19.3 0.00 0.48 0.41 91 1018.9
20260506163030 6 185 14.5 19.3 0.00 0.48 0.41 93 1018.6
20260506161528 6 185 8.0 16.1 0.00 0.48 0.41 93 1018.6
20260506160028 6 185 6.4 14.5 0.00 0.48 0.41 93 1018.7
20260506154533 6 185 4.8 12.9 0.03 0.48 0.41 93 1018.4
20260506153031 5 185 4.8 16.1 0.05 0.48 0.41 93 1018.3
20260506151528 5 185 11.3 16.1 0.05 0.48 0.41 93 1018.4
20260506150028 5 185 11.3 16.1 0.05 0.48 0.41 93 1018.1
20260506144532 5 185 4.8 12.9 0.03 0.46 0.38 94 1018.1
20260506143034 5 185 8.0 12.9 0.00 0.43 0.36 94 1018.2
20260506141529 5 185 4.8 8.0 0.00 0.43 0.36 94 1018.5
20260506140029 5 185 1.6 8.0 0.00 0.43 0.36 94 1018.6